Cherry Point, NC

1:00 PM EST on November 20, 2017 (GMT -0500)
Cherry Point Marine Corps Air Station

Weather History for KNKT - December, 2012

Change the Weather History Date:

Saturday, December 8, 2012

  Actual Average Record
Temperature  
Mean Temperature 62 °F -  
Max Temperature 68 °F 58 °F 78 °F (2001)
Min Temperature 55 °F 39 °F 19 °F (2010)
Degree Days  
Heating Degree Days 4    
Growing Degree Days 12 (Base 50)    
Moisture  
Dew Point 58 °F    
Average Humidity 90    
Maximum Humidity 100    
Minimum Humidity 64    
Precipitation  
Precipitation 0.00 in - - ()
Sea Level Pressure  
Sea Level Pressure 30.01 in    
Wind  
Wind Speed 4 mph ()    
Max Wind Speed 10 mph    
Max Gust Speed -    
Visibility 5.3 miles    
Events Fog , Rain    
Averages and records for this station are not official NWS values.
T = Trace of Precipitation, MM = Missing Value Source: Averaged Metar Reports

Daily Weather History Graph

Daily Weather History Graph

Search for Another Location

Airport or City:

Trip Planner

Search our weather history database for the weather conditions in past years. The results will help you decide how hot, cold, wet, or windy it might be!

Date:

Astronomy

Dec. 08, 2012 Rise Set
Actual Time 7:03 AM EST 4:56 PM EST
Civil Twilight 6:35 AM EST 5:24 PM EST
Nautical Twilight 6:03 AM EST 5:55 PM EST
Astronomical Twilight 5:33 AM EST 6:26 PM EST
Moon 1:35 AM EST (12/8) 1:15 PM EST (12/8)
Length of Visible Light 10h 48m
Length of Day
9h 52m
Waning Crescent, 28% of the Moon is Illuminated
Dec 8
Waning Crescent
Dec 13
New
Dec 20
First Quarter
Dec 28
Full
Jan 4
Last Quarter

Hourly Weather History & Observations

Time (EST) Temp. Dew Point Humidity Pressure Visibility Wind Dir Wind Speed Gust Speed Precip Events Conditions
12:09 AM 62.6 °F 60.8 °F 94% 29.99 in 10.0 mi Calm Calm - N/A   Overcast
12:54 AM 63.0 °F 61.0 °F 93% 29.97 in 5.0 mi Calm Calm - 0.00 in Rain Light Rain
1:01 AM 62.6 °F 60.8 °F 94% 29.98 in 6.0 mi South 3.5 mph - 0.00 in Rain Light Rain
1:23 AM 64.4 °F 62.6 °F 94% 29.97 in 10.0 mi South 3.5 mph - 0.00 in   Overcast
1:50 AM 62.6 °F 60.8 °F 94% 29.97 in 7.0 mi SE 3.5 mph - 0.00 in   Mostly Cloudy
1:54 AM 62.1 °F 60.1 °F 93% 29.96 in 7.0 mi SE 4.6 mph - 0.00 in   Mostly Cloudy
2:24 AM 62.6 °F 60.8 °F 94% 29.96 in 7.0 mi Calm Calm - N/A   Overcast
2:38 AM 62.6 °F 60.8 °F 94% 29.96 in 1.8 mi West 3.5 mph - N/A   Overcast
2:47 AM 62.6 °F 60.8 °F 94% 29.96 in 0.8 mi WSW 3.5 mph - N/A   Mist
2:54 AM 62.1 °F 61.0 °F 96% 29.95 in 0.2 mi SW 3.5 mph - N/A Fog Fog
3:33 AM 60.8 °F 59.0 °F 94% 29.96 in 0.5 mi West 4.6 mph - N/A Fog Fog
3:39 AM 62.6 °F 60.8 °F 94% 29.96 in 1.0 mi West 5.8 mph - N/A   Mostly Cloudy
3:43 AM 62.6 °F 60.8 °F 94% 29.96 in 3.0 mi West 5.8 mph - N/A   Mostly Cloudy
3:51 AM 62.6 °F 60.8 °F 94% 29.97 in 1.8 mi WSW 3.5 mph - N/A   Mostly Cloudy
3:54 AM 62.1 °F 61.0 °F 96% 29.96 in 1.2 mi WSW 3.5 mph - N/A   Mostly Cloudy
4:03 AM 62.6 °F 60.8 °F 94% 29.97 in 0.5 mi WSW 4.6 mph - N/A Fog Fog
4:22 AM 62.6 °F 60.8 °F 94% 29.97 in 0.8 mi West 4.6 mph - N/A   Mist
4:26 AM 62.6 °F 60.8 °F 94% 29.97 in 1.0 mi West 3.5 mph - N/A   Mist
4:37 AM 62.6 °F 60.8 °F 94% 29.97 in 2.5 mi Calm Calm - N/A   Overcast
4:54 AM 62.1 °F 61.0 °F 96% 29.96 in 7.0 mi SW 3.5 mph - N/A   Overcast
5:47 AM 62.6 °F 60.8 °F 94% 29.98 in 8.0 mi West 5.8 mph - N/A   Overcast
5:54 AM 62.1 °F 61.0 °F 96% 29.97 in 8.0 mi West 4.6 mph - N/A   Overcast
6:22 AM 62.6 °F 60.8 °F 94% 29.99 in 6.0 mi West 5.8 mph - N/A   Overcast
6:54 AM 62.1 °F 60.1 °F 93% 29.99 in 10.0 mi West 8.1 mph - N/A   Overcast
7:10 AM 62.6 °F 59.0 °F 88% 30.00 in 10.0 mi West 5.8 mph - N/A   Overcast
7:54 AM 62.1 °F 59.0 °F 90% 30.00 in 10.0 mi West 8.1 mph - N/A   Overcast
8:41 AM 62.6 °F 59.0 °F 88% 30.03 in 10.0 mi WNW 6.9 mph - N/A   Overcast
8:54 AM 62.1 °F 59.0 °F 90% 30.02 in 10.0 mi West 9.2 mph - N/A   Overcast
9:54 AM 62.1 °F 57.9 °F 86% 30.04 in 10.0 mi WNW 6.9 mph - N/A   Overcast
10:54 AM 62.1 °F 57.9 °F 86% 30.03 in 10.0 mi West 8.1 mph - N/A   Overcast
11:39 AM 62.6 °F 57.2 °F 82% 30.03 in 10.0 mi West 8.1 mph - N/A   Mostly Cloudy
11:54 AM 64.9 °F 57.0 °F 75% 30.02 in 10.0 mi WSW 9.2 mph - N/A   Mostly Cloudy
12:54 PM 64.9 °F 57.0 °F 75% 30.00 in 10.0 mi WSW 8.1 mph - N/A   Mostly Cloudy
1:54 PM 68.0 °F 57.0 °F 68% 29.99 in 10.0 mi West 10.4 mph - N/A   Mostly Cloudy
2:01 PM 68.0 °F 55.4 °F 64% 30.00 in 10.0 mi West 8.1 mph - N/A   Scattered Clouds
2:54 PM 66.9 °F 55.9 °F 68% 30.00 in 10.0 mi WSW 9.2 mph - N/A   Scattered Clouds
3:54 PM 66.0 °F 55.0 °F 68% 30.00 in 10.0 mi WSW 9.2 mph - N/A   Clear
4:54 PM 63.0 °F 55.9 °F 78% 30.01 in 10.0 mi SW 3.5 mph - N/A   Scattered Clouds
5:54 PM 59.0 °F 55.9 °F 90% 30.03 in 10.0 mi South 5.8 mph - N/A   Clear
6:54 PM 57.0 °F 55.0 °F 93% 30.05 in 7.0 mi SSW 3.5 mph - N/A   Clear
7:54 PM 55.9 °F 54.0 °F 93% 30.06 in 3.0 mi SSW 3.5 mph - N/A   Partly Cloudy
8:02 PM 55.4 °F 53.6 °F 94% 30.07 in 2.5 mi SSW 3.5 mph - N/A   Mostly Cloudy
8:11 PM 55.4 °F 53.6 °F 94% 30.07 in 1.0 mi SW 3.5 mph - N/A   Mist
8:30 PM 55.4 °F 53.6 °F 94% 30.07 in 0.5 mi SSW 5.8 mph - N/A Fog Fog
8:38 PM 55.4 °F 55.4 °F 100% 30.07 in 1.0 mi SW 5.8 mph - N/A   Mist
8:54 PM 55.9 °F 55.0 °F 97% 30.07 in 1.2 mi SW 4.6 mph - N/A   Overcast
9:05 PM 55.4 °F 53.6 °F 94% 30.08 in 0.5 mi SW 3.5 mph - N/A Fog Fog
9:54 PM 55.9 °F 55.0 °F 97% 30.08 in 0.5 mi SSW 3.5 mph - N/A Fog Fog
10:01 PM 55.4 °F 53.6 °F 94% 30.09 in 0.8 mi SW 3.5 mph - N/A   Mist
10:08 PM 55.4 °F 55.4 °F 100% 30.09 in 0.5 mi SW 3.5 mph - N/A Fog Fog
10:54 PM 55.9 °F 55.0 °F 97% 30.08 in 0.5 mi SSW 3.5 mph - N/A Fog Fog
11:54 PM 55.9 °F 54.0 °F 93% 30.09 in 0.5 mi SSW 3.5 mph - N/A Fog Fog